Flag for Argentina Weather past 2 weeks in Río Grande, Tierra del Fuego, Argentina

Now
43 °F

Passing clouds.


Feels Like: 32 °F
Forecast: N/A
Wind: 31 mph from West

Location: Rio Grande B. A.

Current Time: Aug 30, 2015 at 5:43:21 PM

Latest Report: Aug 30, 2015 at 5:00 PM


Visibility: N/A

Pressure: 29.33 "Hg

Humidity: 81%

Dew point: 37 °F

Location of Río GrandeLocation

Historic Weather in Río Grande — Graph

°F

Río Grande temperature yesterday

Maximum temperature yesterday: 48 °F (at 2:00 PM)
Minimum temperature yesterday: 34 °F (at 9:00 AM)
Average temperature yesterday: 39 °F

Past Weeks' High & Low Weather Summary

 TemperatureHumidityPressure
High48 °F (Aug 16, 2:00 PM)100% (Aug 15, 8:00 PM)30.24 "Hg (Aug 15, 8:00 PM)
Low19 °F (Aug 23, 9:00 AM)65% (Aug 22, 2:00 PM)28.26 "Hg (Aug 16, 5:00 PM)
Average36 °F91%29.48 "Hg
* Reported Aug 15 3:00 PM — Aug 30 3:00 PM, Río Grande, Weather by CustomWeather, © 2015

Note: Actual official high and low records may vary slightly from our data, if they occured in-between our weather recording intervals... More about our weather records

Advertising

Río Grande weather history for previous 24 hours

 ConditionsComfort  
Time TempWeatherWind HumidityBarometerVisibility
3:00 PM
Sun, Aug 30
43 °FScattered clouds.29 mph81%29.30 "HgN/A
2:00 PM45 °FPassing clouds.28 mph81%29.27 "HgN/A
1:00 PM45 °FSunny.29 mph81%29.24 "Hg10 mi
12:00 PM41 °FPassing clouds.21 mph87%29.24 "HgN/A
11:00 AM41 °FScattered clouds.23 mph87%29.21 "HgN/A
10:00 AM39 °FScattered clouds.21 mph93%29.21 "HgN/A
9:00 AM36 °FScattered clouds.5 mph93%29.21 "HgN/A
8:00 AM36 °FPartly sunny.15 mph93%29.18 "HgN/A
7:00 AM34 °FClear.8 mph93%29.15 "Hg10 mi
6:00 AM34 °FClear.7 mph93%29.15 "Hg10 mi
5:00 AM34 °FClear.5 mph93%29.15 "Hg10 mi
1:00 AM34 °FChilly.6 mph100%29.09 "HgN/A
12:00 AM34 °FChilly.7 mph100%29.09 "HgN/A
11:00 PM
Sat, Aug 29
37 °FChilly.7 mph93%29.09 "HgN/A
10:00 PM37 °FPassing clouds.8 mph93%29.09 "HgN/A
9:00 PM37 °FPassing clouds.8 mph93%29.09 "HgN/A
8:00 PM37 °FPassing clouds.6 mph93%29.06 "HgN/A
7:00 PM37 °FPassing clouds.7 mph93%29.06 "HgN/A
6:00 PM39 °FPassing clouds.7 mph93%29.06 "HgN/A
5:00 PM45 °FScattered clouds.5 mph93%29.06 "HgN/A
Weather by CustomWeather, © 2015

See weather overviewHow to use our weather pages